Weather History for Conway, SC

Change the Weather History Date:

Tuesday, July 16, 2013

  Actual Average Record
Temperature  
Mean Temperature 80 °F -  
Max Temperature 91 °F 90 °F 93 °F (2010)
Min Temperature 69 °F 72 °F 68 °F (2011)
Cooling Degree Days 15    
Growing Degree Days 30 (Base 50)    
Moisture  
Dew Point 72 °F    
Average Humidity 82    
Maximum Humidity 100    
Minimum Humidity 46    
Precipitation  
Precipitation 0.00 in - - ()
Sea Level Pressure  
Sea Level Pressure 30.25 in    
Wind  
Wind Speed 1 mph (ENE)    
Max Wind Speed 7 mph    
Max Gust Speed -    
Visibility 6 miles    
Events      
Averages and records for this station are not official NWS values.
T = Trace of Precipitation, MM = Missing Value Source: NWS Daily Summary

Daily Weather History Graph

Daily Weather History Graph

Search for Another Location

Airport:

Trip Planner

Search our weather history database for the weather conditions in past years. The results will help you decide how hot, cold, wet, or windy it might be!

Date:

Astronomy

Jul. 16, 2013 Rise Set
Actual Time 6:17 AM EDT 8:27 PM EDT
Civil Twilight 5:49 AM EDT 8:55 PM EDT
Nautical Twilight 5:14 AM EDT 9:30 PM EDT
Astronomical Twilight 4:37 AM EDT 10:07 PM EDT
Moon 2:13 PM EDT (7/16) 12:37 AM EDT (7/16)
Length of Visible Light 15h 06m
Length of Day
14h 09m
First Quarter, 56% of the Moon is Illuminated
Jul 16
First Quarter
Jul 22
Full
Jul 29
Last Quarter
Aug 6
New
Aug 14
First Quarter

Hourly Weather History & Observations

Time (EDT) Temp. Heat Index Dew Point Humidity Pressure Visibility Wind Dir Wind Speed Gust Speed Precip Events Conditions
12:15 AM 73.4 °F - 73.4 °F 100% 30.27 in 5.0 mi Calm Calm - N/A   Clear
12:35 AM 71.6 °F - 71.6 °F 100% 30.27 in 5.0 mi Calm Calm - N/A   Clear
12:55 AM 71.6 °F - 71.6 °F 100% 30.27 in 5.0 mi Calm Calm - N/A   Clear
1:15 AM 71.6 °F - 71.6 °F 100% 30.27 in 7.0 mi Calm Calm - N/A   Clear
1:35 AM 71.6 °F - 71.6 °F 100% 30.27 in 5.0 mi Calm Calm - N/A   Clear
1:55 AM 71.6 °F - 71.6 °F 100% 30.26 in 7.0 mi Calm Calm - N/A   Clear
2:15 AM 71.6 °F - 71.6 °F 100% 30.26 in 5.0 mi Calm Calm - N/A   Clear
2:35 AM 71.6 °F - 71.6 °F 100% 30.26 in 5.0 mi Calm Calm - N/A   Clear
2:55 AM 71.6 °F - 71.6 °F 100% 30.26 in 4.0 mi Calm Calm - N/A   Clear
3:15 AM 71.6 °F - 71.6 °F 100% 30.26 in 5.0 mi Calm Calm - N/A   Clear
3:35 AM 71.6 °F - 71.6 °F 100% 30.26 in 5.0 mi Calm Calm - N/A   Clear
3:55 AM 71.6 °F - 71.6 °F 100% 30.26 in 4.0 mi Calm Calm - N/A   Clear
4:15 AM 69.8 °F - 69.8 °F 100% 30.25 in 5.0 mi Calm Calm - N/A   Clear
4:35 AM 69.8 °F - 69.8 °F 100% 30.25 in 5.0 mi Calm Calm - N/A   Clear
4:55 AM 69.8 °F - 69.8 °F 100% 30.25 in 5.0 mi Calm Calm - N/A   Clear
5:15 AM 69.8 °F - 69.8 °F 100% 30.25 in 4.0 mi Calm Calm - N/A   Scattered Clouds
5:35 AM 69.8 °F - 69.8 °F 100% 30.26 in 4.0 mi Calm Calm - N/A   Scattered Clouds
5:55 AM 69.8 °F - 69.8 °F 100% 30.26 in 5.0 mi Calm Calm - N/A   Mostly Cloudy
6:15 AM 69.8 °F - 69.8 °F 100% 30.27 in 4.0 mi Calm Calm - N/A   Scattered Clouds
6:35 AM 69.8 °F - 69.8 °F 100% 30.27 in 4.0 mi Calm Calm - N/A   Mostly Cloudy
6:55 AM 69.8 °F - 69.8 °F 100% 30.27 in 3.0 mi Calm Calm - N/A   Overcast
7:15 AM 71.6 °F - 71.6 °F 100% 30.28 in 5.0 mi Calm Calm - N/A   Overcast
7:35 AM 71.6 °F - 71.6 °F 100% 30.28 in 4.0 mi NE 3.5 mph - N/A   Mostly Cloudy
7:55 AM 73.4 °F - 73.4 °F 100% 30.29 in 5.0 mi Calm Calm - N/A   Scattered Clouds
8:15 AM 75.2 °F - 75.2 °F 100% 30.29 in 5.0 mi Calm Calm - N/A   Clear
8:35 AM 77.0 °F - 77.0 °F 100% 30.30 in 5.0 mi Calm Calm - N/A   Clear
8:55 AM 78.8 °F - 78.8 °F 100% 30.30 in 5.0 mi North 3.5 mph - N/A   Scattered Clouds
9:15 AM 80.6 °F 88.1 °F 78.8 °F 94% 30.29 in 5.0 mi Calm Calm - N/A   Scattered Clouds
9:35 AM 80.6 °F 87.1 °F 77.0 °F 89% 30.29 in 5.0 mi NE 3.5 mph - N/A   Haze
9:55 AM 82.4 °F 88.2 °F 73.4 °F 74% 30.29 in 7.0 mi North 3.5 mph - N/A   Scattered Clouds
10:15 AM 82.4 °F 87.2 °F 71.6 °F 70% 30.29 in 7.0 mi Calm Calm - N/A   Scattered Clouds
10:35 AM 82.4 °F 87.2 °F 71.6 °F 70% 30.28 in 7.0 mi Calm Calm - N/A   Clear
10:55 AM 84.2 °F 89.6 °F 71.6 °F 66% 30.28 in 7.0 mi NNE 4.6 mph - N/A   Scattered Clouds
11:15 AM 86.0 °F 91.8 °F 71.6 °F 62% 30.28 in 7.0 mi ENE 5.8 mph - N/A   Scattered Clouds
11:55 AM 86.0 °F 90.4 °F 69.8 °F 58% 30.27 in 7.0 mi NNE 6.9 mph - N/A   Clear
12:15 PM 86.0 °F 90.4 °F 69.8 °F 58% 30.27 in 7.0 mi Calm Calm - N/A   Clear
12:35 PM 87.8 °F 92.6 °F 69.8 °F 55% 30.27 in 7.0 mi ENE 5.8 mph - N/A   Scattered Clouds
12:55 PM 87.8 °F 92.6 °F 69.8 °F 55% 30.27 in 7.0 mi NE 3.5 mph - N/A   Scattered Clouds
1:15 PM 89.6 °F 94.7 °F 69.8 °F 52% 30.26 in 7.0 mi North 5.8 mph - N/A   Clear
1:35 PM 89.6 °F 94.7 °F 69.8 °F 52% 30.26 in 7.0 mi ENE 3.5 mph - N/A   Clear
1:55 PM 89.6 °F 94.7 °F 69.8 °F 52% 30.25 in 7.0 mi NNE 6.9 mph - N/A   Clear
2:15 PM 87.8 °F 92.6 °F 69.8 °F 55% 30.25 in 7.0 mi Calm Calm - N/A   Mostly Cloudy
2:35 PM 89.6 °F 94.7 °F 69.8 °F 52% 30.24 in 7.0 mi NNE 4.6 mph - N/A   Scattered Clouds
2:55 PM 89.6 °F 94.7 °F 69.8 °F 52% 30.23 in 7.0 mi NE 4.6 mph - N/A   Mostly Cloudy
3:15 PM 89.6 °F 94.7 °F 69.8 °F 52% 30.23 in 7.0 mi Calm Calm - N/A   Scattered Clouds
3:35 PM 89.6 °F 93.4 °F 68.0 °F 49% 30.23 in 7.0 mi Calm Calm - N/A   Scattered Clouds
4:55 PM 91.4 °F 95.4 °F 68.0 °F 46% 30.21 in 7.0 mi Calm Calm - N/A   Scattered Clouds
5:15 PM 91.4 °F 96.8 °F 69.8 °F 49% 30.21 in 7.0 mi Calm Calm - N/A   Clear
5:35 PM 91.4 °F 95.4 °F 68.0 °F 46% 30.20 in 7.0 mi Calm Calm - N/A   Mostly Cloudy
5:55 PM 89.6 °F 98.2 °F 73.4 °F 59% 30.20 in 7.0 mi SSE 5.8 mph - N/A   Overcast
6:15 PM 89.6 °F 98.2 °F 73.4 °F 59% 30.20 in 7.0 mi SSE 5.8 mph - N/A   Mostly Cloudy
6:35 PM 87.8 °F 95.6 °F 73.4 °F 62% 30.20 in 7.0 mi SSE 6.9 mph - N/A   Scattered Clouds
6:55 PM 86.0 °F 93.4 °F 73.4 °F 66% 30.20 in 7.0 mi South 6.9 mph - N/A   Clear
7:15 PM 86.0 °F 93.4 °F 73.4 °F 66% 30.20 in 7.0 mi South 4.6 mph - N/A   Clear
7:35 PM 84.2 °F 89.6 °F 71.6 °F 66% 30.21 in 7.0 mi SSW 4.6 mph - N/A   Clear
7:55 PM 82.4 °F 87.2 °F 71.6 °F 70% 30.20 in 7.0 mi South 4.6 mph - N/A   Clear
8:15 PM 80.6 °F 85.4 °F 73.4 °F 79% 30.21 in 5.0 mi Calm Calm - N/A   Haze
8:35 PM 78.8 °F - 73.4 °F 83% 30.21 in 7.0 mi Calm Calm - N/A   Clear
8:55 PM 78.8 °F - 73.4 °F 83% 30.21 in 7.0 mi Calm Calm - N/A   Clear
9:15 PM 77.0 °F - 75.2 °F 94% 30.22 in 7.0 mi Calm Calm - N/A   Clear
9:35 PM 77.0 °F - 75.2 °F 94% 30.22 in 7.0 mi Calm Calm - N/A   Clear
9:55 PM 77.0 °F - 73.4 °F 89% 30.23 in 7.0 mi Calm Calm - N/A   Clear
10:15 PM 75.2 °F - 75.2 °F 100% 30.23 in 7.0 mi Calm Calm - N/A   Clear
10:35 PM 75.2 °F - 75.2 °F 100% 30.23 in 7.0 mi Calm Calm - N/A   Clear
10:55 PM 75.2 °F - 75.2 °F 100% 30.23 in 10.0 mi Calm Calm - N/A   Clear
11:15 PM 75.2 °F - 75.2 °F 100% 30.23 in 7.0 mi Calm Calm - N/A   Clear
11:35 PM 75.2 °F - 75.2 °F 100% 30.23 in 7.0 mi Calm Calm - N/A   Clear
11:55 PM 75.2 °F - 75.2 °F 100% 30.23 in 7.0 mi Calm Calm - N/A   Clear